This is the latest recevied weather packets stored in our database for station/object DC7RY. If no packets are shown the sender has not sent any weather packets the latest 10 day(s).
| Time | Temp. | Humidity | Pressure | Rain* | Wind** | Luminosity | Snow |
|---|---|---|---|---|---|---|---|
| 1777310422 | 17.78° C | 36% | 1012.9 hPa | 0 mm | - | 174 W/m² | - |
| 1777309830 | 17.78° C | 38% | 1012.8 hPa | 0 mm | - | 210 W/m² | - |
| 1777309222 | 18.33° C | 39% | 1012.8 hPa | 0 mm | - | 185 W/m² | - |
| 1777308630 | 18.89° C | 38% | 1012.9 hPa | 0 mm | - | 97 W/m² | - |
| 1777308022 | 20° C | 39% | 1012.9 hPa | 0 mm | - | 140 W/m² | - |
| 1777307430 | 21.11° C | 37% | 1013.2 hPa | 0 mm | - | 229 W/m² | - |
| 1777306822 | 21.11° C | 31% | 1013.1 hPa | 0 mm | - | 239 W/m² | - |
| 1777306230 | 21.67° C | 32% | 1013.1 hPa | 0 mm | - | 291 W/m² | - |
| 1777305622 | 21.67° C | 35% | 1013.1 hPa | 0 mm | - | 246 W/m² | - |
| 1777305030 | 21.67° C | 31% | 1013.2 hPa | 0 mm | - | 243 W/m² | - |
| 1777304422 | 21.11° C | 29% | 1013.3 hPa | 0 mm | - | 272 W/m² | - |
| 1777303830 | 20.56° C | 33% | 1013.3 hPa | 0 mm | - | 309 W/m² | - |
| 1777303222 | 21.11° C | 30% | 1013.4 hPa | 0 mm | - | 347 W/m² | - |
| 1777302630 | 20.56° C | 33% | 1013.4 hPa | 0 mm | - | 361 W/m² | - |
| 1777302022 | 20° C | 31% | 1013.5 hPa | 0 mm | - | 278 W/m² | - |
| 1777301430 | 19.44° C | 33% | 1013.6 hPa | 0 mm | - | 371 W/m² | - |
| 1777300822 | 20° C | 33% | 1013.6 hPa | 0 mm | - | 306 W/m² | - |
| 1777300230 | 20° C | 33% | 1013.9 hPa | 0 mm | - | 281 W/m² | - |
| 1777299623 | 20° C | 33% | 1014 hPa | 0 mm | - | 331 W/m² | - |
| 1777299030 | 20° C | 32% | 1014.2 hPa | 0 mm | - | 289 W/m² | - |
| 1777298422 | 20° C | 32% | 1014.4 hPa | 0 mm | - | 310 W/m² | - |
| 1777297829 | 18.89° C | 30% | 1014.2 hPa | 0 mm | - | 306 W/m² | - |
| 1777297221 | 18.89° C | 32% | 1014.3 hPa | 0 mm | - | 309 W/m² | - |
| 1777296629 | 18.33° C | 32% | 1014.4 hPa | 0 mm | - | 275 W/m² | - |
| 1777296021 | 18.33° C | 34% | 1014.6 hPa | 0 mm | - | 235 W/m² | - |
* Rain latest hour (hover to see other rain measurements)
** Current wind speed in m/s (hover to see current wind gust speed)